Home   Weather   Geneva   Past weeks

Flag for Switzerland Past Weather in Geneva, Geneva, Switzerland — Yesterday and Last 2 Weeks

Now
32 °F

Ice fog.


Feels Like: 29 °F
Forecast: 30 / 55 °F
Wind: 3 mph from West

Location: Geneva Cointrin Airport

Current Time: Dec 9, 2016 at 4:29:14 pm

Latest Report: Dec 9, 2016 at 3:50 pm


Visibility: 1 mi

Pressure: 30.51 "Hg

Humidity: 100%

Dew Point: 32 °F

Location of GenevaLocation

Past Weather in Geneva — Graph

°F

Geneva Temperature Yesterday

Maximum temperature yesterday: 34 °F (at 2:20 am)
Minimum temperature yesterday: 28 °F (at 11:50 pm)
Average temperature yesterday: 32 °F

High & Low Weather Summary for the Past Weeks

 TemperatureHumidityPressure
High50 °F (Nov 24, 3:20 pm)100% (Nov 24, 5:20 pm)30.63 "Hg (Nov 24, 5:20 pm)
Low25 °F (Nov 30, 5:50 am)56% (Nov 28, 7:20 pm)29.80 "Hg (Nov 25, 1:20 am)
Average38 °F87%30.26 "Hg
* Reported Nov 24 3:20 pm — Dec 9 3:20 pm, Geneva, Weather by CustomWeather, © 2016

Note: Actual official high and low records may vary slightly from our data, if they occured in-between our weather recording intervals... More about our weather records

Advertising

Geneva Weather History for the Previous 24 Hours

Scroll right to see more
 ConditionsComfort  
Time TempWeatherWind HumidityBarometerVisibility
3:20 pm
Fri, Dec 9
32 °FIce fog.3 mph100%30.51 "Hg1 mi
2:50 pm32 °FIce fog.2 mph100%30.51 "Hg2 mi
2:20 pm32 °FIce fog.3 mph100%30.51 "Hg1 mi
1:50 pm32 °FIce fog.2 mph100%30.51 "Hg1 mi
1:20 pm32 °FIce fog.2 mph100%30.54 "Hg1 mi
12:50 pm30 °FIce fog.3 mph100%30.54 "Hg1 mi
12:20 pm30 °FIce fog.2 mph100%30.54 "Hg1 mi
11:50 am30 °FIce fog.2 mph100%30.54 "Hg1 mi
11:20 am30 °FIce fog.3 mph100%30.57 "Hg1 mi
10:50 am30 °FIce fog.2 mph100%30.57 "Hg1 mi
10:20 am30 °FIce fog.2 mph100%30.57 "Hg1 mi
9:50 am30 °FIce fog.2 mph100%30.57 "Hg1 mi
9:20 am30 °FIce fog.2 mph100%30.57 "Hg1 mi
8:50 am30 °FIce fog.2 mph100%30.57 "Hg1 mi
8:20 am30 °FIce fog.3 mph100%30.57 "Hg1 mi
7:50 am30 °FIce fog.2 mph100%30.54 "Hg1 mi
7:20 am28 °FIce fog.2 mph100%30.54 "Hg1 mi
6:50 am28 °FIce fog.2 mph100%30.54 "Hg0 mi
6:20 am30 °FIce fog.2 mph100%30.54 "Hg0 mi
5:20 am30 °FIce fog.2 mph100%30.54 "Hg0 mi
4:50 am32 °FIce fog.1 mph100%30.57 "Hg0 mi
4:20 am32 °FIce fog.2 mph100%30.57 "Hg0 mi
3:50 am32 °FIce fog.1 mph100%30.57 "Hg0 mi
3:20 am32 °FIce fog.2 mph100%30.57 "Hg0 mi
2:50 am32 °FIce fog.2 mph100%30.54 "Hg0 mi
2:20 am30 °FIce fog.1 mph100%30.54 "Hg0 mi
1:50 am30 °FIce fog.2 mph100%30.57 "Hg0 mi
1:20 am30 °FIce fog.3 mph100%30.57 "Hg0 mi
12:50 am30 °FIce fog.2 mph100%30.57 "Hg0 mi
12:20 am30 °FIce fog.2 mph100%30.57 "Hg0 mi
11:50 pm
Thu, Dec 8
28 °FIce fog.2 mph100%30.57 "Hg0 mi
11:20 pm30 °FIce fog.2 mph100%30.57 "Hg0 mi
10:50 pm30 °FIce fog.5 mph100%30.57 "Hg0 mi
10:20 pm30 °FIce fog.2 mph100%30.57 "Hg0 mi
9:50 pm30 °FIce fog.3 mph100%30.57 "Hg0 mi
9:20 pm30 °FIce fog.2 mph100%30.57 "Hg0 mi
8:50 pm30 °FIce fog.3 mph100%30.57 "Hg0 mi
8:20 pm30 °FIce fog.2 mph100%30.57 "Hg0 mi
7:50 pm32 °FIce fog.3 mph100%30.57 "Hg0 mi
7:20 pm32 °FIce fog.3 mph100%30.57 "Hg0 mi
6:50 pm32 °FIce fog.2 mph100%30.57 "Hg0 mi
6:20 pm32 °FIce fog.3 mph100%30.57 "Hg0 mi
5:50 pm30 °FIce fog.3 mph100%30.54 "Hg0 mi
5:20 pm32 °FIce fog.2 mph100%30.54 "Hg1 mi
4:50 pm34 °FFog.3 mph93%30.54 "Hg1 mi
4:20 pm34 °FFog.3 mph93%30.54 "Hg2 mi
Weather by CustomWeather, © 2016

See weather overviewHow to use our weather pages